Sapporo, Japan

4:20 PM JST on July 21, 2018 (GMT +0900)
New Chitose | | Change Station

Elev 98 ft 42.80 °N, 141.67 °E | Updated 20 minutes ago

Partly Cloudy
Partly Cloudy
79 °F
Feels Like 79 °F
N
13
Wind Variable Wind from SSE

Today
High -- | Low -- °F
--% Chance of Precip.
Yesterday
High -- | Low -- °F
Precip. -- in
Pressure 29.65 in
Visibility 6.2 miles
Clouds Few 1000 ft
Scattered Clouds 17000 ft
Dew Point 70 °F
Humidity 74%
Rainfall 0.00 in
Snow Depth Not available.
4:13 AM 7:07 PM
Waxing Gibbous, 65% visible
METAR RJCC 210700Z 16011KT 9999 FEW010 SCT170 26/21 Q1004 RMK 1ST010 4AC170 A2966
Pressure 29.65 in
Visibility 6.2 miles
Clouds Few 1000 ft
Scattered Clouds 17000 ft
Dew Point 70 °F
Humidity 74%
Rainfall 0.00 in
Snow Depth Not available.
4:13 AM 7:07 PM
Waxing Gibbous, 65% visible
METAR RJCC 210700Z 16011KT 9999 FEW010 SCT170 26/21 Q1004 RMK 1ST010 4AC170 A2966

Get Severe Weather Alerts

Thanks for signing up!

Be on the lookout for a verification email in your inbox.

You'll start receiving the daily forecast at 6 AM.

×

10-Day Weather Forecast

No radar image for this location.
×

Almanac

Astronomy

Jul. 21, 2018 Rise Set
Actual Time
Civil Twilight
Nautical Twilight
Astronomical Twilight
Moon
Length of Visible Light
Length of Day
Tomorrow will be .
, % of the Moon is Illuminated

Today's Extremes

Country Highs Country Lows

Community

WunderPhotos

Category 6

Welcome to Category 6. This is the collective home for Weather Underground's featured writeups by Dr. Jeff Masters (right), Bob Henson (left), Chris Burt, and other regular contributors.

Nearby

Air Quality

  Air Quality AQ Index Pollutant
Not available.

Snow Depth

Station Depth Elevation

Earthquake Activity

City Distance Mag. Time & Date
Minimum magnitude displayed is 2.5.

Coastal Water Temperatures

Place Temperature

Stations

Nearby Weather Stations

Station Location Temp. Windchill Dew Point Humidity Wind Precip. Elev Updated Type